Location: Newark
(51.2000°N, 58.6167°E)
Time: 20:11:34
(UTC+00:00)

ISS - Visible Passes

Search period start: 18 September 2020 00:00
Search period end: 28 September 2020 00:00
Orbit: 419 x 420 km, 51.6° (Epoch: 19 September)

Date Brightness Start Highest point End Pass type
(mag) Time Alt. Az. Time Alt. Az. Time Alt. Az.
18 Sep -1.7 14:59:37 10° SSE 15:01:09 13° SE 15:02:13 11° ESE visible
18 Sep -1.6 16:34:05 10° SW 16:35:14 19° SW 16:35:14 19° SW visible
19 Sep -3.1 15:46:56 10° SW 15:50:04 35° SSE 15:50:10 35° SSE visible
20 Sep -2.5 14:59:56 10° SSW 15:02:48 26° SSE 15:04:57 14° E visible
20 Sep -2.3 16:35:56 10° WSW 16:37:55 33° WSW 16:37:55 33° WSW visible
21 Sep -3.8 15:48:35 10° WSW 15:51:56 64° SSE 15:52:33 51° ESE visible
21 Sep -0.5 17:25:22 10° W 17:25:31 11° W 17:25:31 11° W visible
22 Sep -3.4 15:01:18 10° SW 15:04:34 49° SSE 15:07:04 16° E visible
22 Sep -2.3 16:37:56 10° W 16:40:02 35° W 16:40:02 35° W visible
23 Sep -3.8 15:50:29 10° W 15:53:52 89° NW 15:54:28 58° E visible
23 Sep -0.4 17:27:21 10° W 17:27:26 11° W 17:27:26 11° W visible
24 Sep -3.8 15:03:03 10° WSW 15:06:26 79° SSE 15:08:52 18° E visible
24 Sep -2.0 16:39:55 10° W 16:41:49 31° W 16:41:49 31° W visible
25 Sep -3.9 15:52:27 10° W 15:55:50 81° N 15:56:09 70° ENE visible
26 Sep -3.7 15:04:58 10° W 15:08:21 82° N 15:10:28 21° E visible
26 Sep -1.6 16:41:50 10° W 16:43:25 25° W 16:43:25 25° W visible
27 Sep -3.7 14:17:29 10° W 14:20:53 89° NNE 14:24:16 10° E visible
27 Sep -3.9 15:54:21 10° W 15:57:42 86° SW 15:57:42 86° SW visible
